Flag for U.S.A. Weather past 2 weeks in Santa Cruz, California, U.S.A.

Now
61 °F

Overcast.


Feels Like: 61 °F
Forecast: 58 / 64 °F
Wind: No wind

Location: Watsonville Municipal Airport

Current Time: Dec 21, 2014 at 11:37:23 AM

Latest Report: Dec 21, 2014 at 10:53 AM


Visibility: 10 mi

Pressure: 30.31 "Hg

Humidity: 83%

Dew point: 56 °F

Location of Santa CruzLocation

Historic Weather in Santa Cruz — Graph

°F

Santa Cruz temperature yesterday

Maximum temperature yesterday: 63 °F (at 12:53 PM)
Minimum temperature yesterday: 57 °F (at 11:53 PM)
Average temperature yesterday: 59 °F

Past Weeks' High & Low Weather Summary

 TemperatureHumidityPressure
High69 °F (Dec 6, 11:53 AM)100% (Dec 11, 2:53 PM)30.33 "Hg (Dec 11, 2:53 PM)
Low43 °F (Dec 13, 6:53 AM)58% (Dec 13, 1:53 PM)29.62 "Hg (Dec 11, 1:53 PM)
Average56 °F87%30.06 "Hg
* Reported Dec 6 9:53 AM — Dec 21 9:53 AM, Santa Cruz, Weather by CustomWeather, © 2014

Note: Actual official high and low records may vary slightly from our data, if they occured in-between our weather recording intervals... More about our weather records

Advertising

Santa Cruz weather history for previous 24 hours

 ConditionsComfort  
Time TempWeatherWind HumidityBarometerVisibility
9:53 AM
Dec 21
59 °FPartly sunny.3 mph90%30.33 "Hg10 mi
8:53 AM59 °FPartly sunny.3 mph87%30.31 "Hg10 mi
7:53 AM58 °FLow clouds.No wind90%30.30 "Hg10 mi
6:53 AM57 °FLow clouds.No wind93%30.29 "Hg10 mi
5:53 AM57 °FOvercast.No wind93%30.28 "Hg10 mi
4:53 AM57 °FLow clouds.No wind93%30.27 "Hg8 mi
3:53 AM57 °FOvercast.No wind93%30.28 "Hg10 mi
2:53 AM58 °FOvercast.No wind90%30.29 "Hg10 mi
1:53 AM58 °FOvercast.3 mph90%30.28 "Hg10 mi
12:53 AM58 °FOvercast.No wind90%30.27 "Hg10 mi
11:53 PM
Dec 20
57 °FOvercast.No wind93%30.29 "Hg10 mi
10:53 PM58 °FPassing clouds.3 mph90%30.29 "Hg10 mi
9:53 PM59 °FPartly cloudy.No wind90%30.28 "Hg10 mi
8:53 PM59 °FOvercast.No wind93%30.27 "Hg10 mi
7:53 PM60 °FOvercast.No wind90%30.26 "Hg10 mi
6:53 PM59 °FOvercast.No wind93%30.25 "Hg9 mi
5:53 PM60 °FOvercast.No wind86%30.24 "Hg10 mi
4:53 PM61 °FMostly cloudy.No wind83%30.23 "Hg10 mi
3:53 PM61 °FOvercast.No wind83%30.21 "Hg10 mi
2:53 PM61 °FOvercast.6 mph83%30.21 "Hg10 mi
1:53 PM62 °FPartly sunny.5 mph78%30.19 "Hg10 mi
12:53 PM63 °FPartly sunny.3 mph75%30.20 "Hg10 mi
12:01 PM61 °FMore clouds than sun.3 mph90%30.21 "Hg10 mi
Weather by CustomWeather, © 2014

See weather overviewHow to use our weather pages